{"data":{"norad_id":64068,"intl_designator":"2025-107E","name":"STARLINK-11700 [DTC]","alt_names":[],"object_type":"PAYLOAD","status":"ACTIVE","operator":null,"country":"US","launch_date":"2025-05-21","launch_site_code":"AFETR","launch_vehicle":null,"mission":null,"orbit_class":"UNKNOWN","rcs_meters":null,"size_class":null,"mass_kg":null,"dimensions":null,"purposes":["comms"],"wikipedia_slug":null,"has_3d_model":false,"image_url":null,"decayed_at":null,"tle_current":{"epoch":"2026-09-20T07:38:23.991072Z","epoch_age_seconds":159253,"freshness":"FRESH","line1":"1 64068U 25107E   26263.31833323  .00181295  00000+0  13823-2 0  9998","line2":"2 64068  42.9994   5.4747 0001353 274.2700  85.8013 15.70899549 77909","mean_motion":15.70899549,"eccentricity":0.0001353,"inclination_deg":42.9994,"raan_deg":5.4747,"arg_perigee_deg":274.27,"mean_anomaly_deg":85.8013,"bstar":0.0013823,"rev_number":7790,"period_min":91.667223465477,"perigee_km":355.41369206813,"apogee_km":357.23603744873,"semimajor_km":6734.4618647584,"source":"CELESTRAK","updated_at":"2026-09-21T09:00:35.192336Z"}}}